Location: Newark
(35.2672°N, 80.7344°W)
Time: 19:32:32
(UTC+00:00)

Transit 2A Rocket - Pass Details

Date: 02 February 2020
Orbit: 591 x 912 km, 66.7° (Epoch: 25 February)

Event Time Altitude Azimuth Distance (km) Brightness Sun altitude
Rises 08:29:50 0° 214° (SSW) 2,845 - -47.4°
Reaches altitude 10° 08:32:07 10° 217° (SW) 1,927 - -47.0°
Maximum altitude 08:36:21 61° 298° (WNW) 673 - -46.1°
Drops below altitude 10° 08:40:37 10° 20° (NNE) 1,937 - -45.3°
Sets 08:42:55 0° 24° (NNE) 2,861 - -44.8°
